Tracking 31027 objects as of 19-Jul-2025
HD Live streaming from Space Station
objects crossing your sky now

COSMOS 839 DEB

Track COSMOS 839 DEB now!
10-day predictions


NORAD ID: 10622
Int'l Code: 1976-067AW
Perigee: 946.0 km
Apogee: 2,134.9 km
Inclination: 65.9 °
Period: 116.7 minutes
Semi major axis: 7911 km
RCS: 0.1409 m2 (medium)
Launch date: July 8, 1976
Source: Commonwealth of Independent States (former USSR) (CIS)
Launch site: PLESETSK MISSILE AND SPACE COMPLEX (PKMTR)

Note: This is SATELLITE DEBRIS
Your satellite tracking list
COSMOS 2251 DEB
Track 1 satellite(s)




NASA's NSSDC Master Catalog

Two Line Element Set (TLE):
1 10622U 76067AW  25199.33842550 -.00000040  00000-0  48687-4 0  9995
2 10622  65.9032 164.0282 0751407 259.2734 263.1923 12.33726200207727
Source of the keplerian elements: AFSPC